Regional Weather Roundup
Issued by NWS

Home | Current Version | Previous Version | Graphics & Text | Print | Product List | Glossary On
Versions: 1 2 3 4 5 6 7 8 9 10 11 12 13 14 15 16 17 18 19 20 21 22 23 24 25 26 27 28 29 30 31 32 33 34 35 36 37 38 39 40 41 42 43 44 45 46 47 48 49 50
000
ASUS43 KBIS 180659
RWRND

NORTH DAKOTA REGIONAL WEATHER ROUNDUP
NATIONAL WEATHER SERVICE BISMARCK ND
200 AM CDT THU SEP 18 2014

NOTE: "FAIR" INDICATES FEW OR NO CLOUDS BELOW 12,000 FEET WITH NO
SIGNIFICANT WEATHER AND/OR OBSTRUCTIONS TO VISIBILITY.


NDZ001>003-009>011-017-180800-
NORTHWEST NORTH DAKOTA

CITY           SKY/WX    TMP DP  RH WIND       PRES   REMARKS
WILLISTON      CLEAR     59  47  64 CALM      29.87F
MINOT          CLEAR     48  46  93 SE9       29.96F
$$

NDZ018>021-031>035-040>046-180800-
SOUTHWEST NORTH DAKOTA

CITY           SKY/WX    TMP DP  RH WIND       PRES   REMARKS
BISMARCK       CLEAR     49  46  90 E7        29.99F
DICKINSON      PTCLDY    53  46  77 SE12      29.91F
GARRISON         N/A     52  51  97 SE7       29.95F
HETTINGER ARPT CLEAR     53  46  77 SE9       29.95F
$$

NDZ004>008-012>016-024-026-027-054-180800-
NORTHEAST NORTH DAKOTA

CITY           SKY/WX    TMP DP  RH WIND       PRES   REMARKS
GRAND FORKS    CLEAR     39  38  96 N3        30.04S
DEVILS LAKE    CLEAR     46  37  71 SE12      30.01S
$$

NDZ022-023-025-028>030-036>039-047>053-180800-
SOUTHEAST NORTH DAKOTA

CITY           SKY/WX    TMP DP  RH WIND       PRES   REMARKS
FARGO          CLEAR     47  44  90 N5        30.00F
$$



USA.gov is the U.S. government's official web portal to all federal, state and local government web resources and services.